Content
SEND FEEDBACK

Daily
Averages
Monthly
Summary
United Kingdom

LONDON, ENGLAND


Home > Europe > United Kingdom > England
Elevation: 61 meters     Latitude: 51 09N     Longitude: 000 11W

WEATHER
 
SELECT A DAY
Number of Records: 298,815;   Date Range: 7/1/96 - 11/26/14
 
SHARE

PRINT THIS DATA

[ ← Previous Day ]
WEATHER ALMANAC - 21 JUNE, 2013
[ Next Day → ]
[ °F ]   °C
Weather ElementAverageHighLow
Temperature15.7 °C20 °C (3:50 pm)13 °C (12:50 am)
Dewpoint13.4 °C15 °C (3:50 pm)12 °C (12:50 am)
Humidity86.8 %100 % (3:20 am)68 % (4:50 pm)
Barometer1010.8 hPa1013.2 hPa (10:20 pm)1009.1 hPa (12:50 am)
Wind Speed12.6 km/h20.4 km/h (5:50 pm)
Weather ElementAverage
Visibility8.2 km
Wind DirectionSSW (210.4 °)

Weather ElementTotal
Precipitation---
Heating Degree Days1.8 (Base 18.3)
Growing Degree Days6.5 (Base 10)
Averaged from 47 records on 21 June, 2013
WEATHER CONDITIONS BREAKOUT
WIND DIRECTION BREAKOUT
WEATHER BY HOUR - 21 JUNE, 2013
[ °F ]   °C
Local TimeTemperatureDewpointHumidityBarometerVisibilityWind DirectionWind SpeedGust SpeedPrecipitationEventsConditions
12:50 AM13 °C12 °C94 %1009.1 hPa9 kmVariable3.7 km/h
1:20 AM14 °C13 °C94 %1010.2 hPa9 kmSSW (210°)9.3 km/h
1:50 AM14 °C13 °C94 %1010.2 hPa9 kmSSW (210°)9.3 km/h
2:20 AM14 °C12 °C88 %1010.2 hPa8 kmSW (220°)5.6 km/hScattered Clouds
2:50 AM14 °C12 °C88 %1010.2 hPa6 kmSW (220°)9.3 km/hMostly Cloudy
3:20 AM13 °C13 °C100 %1010.2 hPa4 kmSW (220°)9.3 km/hHaze
3:50 AM13 °C13 °C100 %1009.1 hPa2.6 kmSW (220°)13 km/hMostly Cloudy
4:20 AM13 °C12 °C94 %1009.1 hPa6.9 kmSW (220°)13 km/hMostly Cloudy
4:50 AM13 °C13 °C100 %1009.1 hPa2.3 kmSW (230°)13 km/hOvercast
5:20 AM13 °C13 °C100 %1009.1 hPa4 kmSW (220°)9.3 km/hOvercast
5:50 AM13 °C13 °C100 %1009.1 hPaVariable5.6 km/hOvercast
6:20 AM13 °C13 °C100 %1009.1 hPa2.6 kmSSW (210°)9.3 km/hOvercast
6:50 AM13 °C13 °C100 %1009.1 hPaSSW (210°)7.4 km/hMostly Cloudy
7:20 AM14 °C13 °C94 %1009.1 hPa2.7 kmSSW (210°)11.1 km/hMostly Cloudy
7:50 AM14 °C13 °C94 %1009.1 hPaSW (230°)9.3 km/hOvercast
8:20 AM14 °C13 °C94 %1009.1 hPaSW (220°)11.1 km/hMostly Cloudy
8:50 AM14 °C14 °C100 %1010.2 hPa5 kmWSW (240°)7.4 km/hHaze
9:20 AM15 °C14 °C94 %1010.2 hPa6.9 kmSW (230°)9.3 km/hMostly Cloudy
9:50 AM15 °C14 °C94 %1010.2 hPa8 kmWSW (240°)11.1 km/hMostly Cloudy
10:20 AM16 °C14 °C88 %1010.2 hPa9 kmWSW (250°)13 km/hMostly Cloudy
10:50 AM16 °C14 °C88 %1010.2 hPa9 kmWSW (240°)11.1 km/hMostly Cloudy
11:20 AM16 °C14 °C88 %1010.2 hPa9 kmWSW (240°)14.8 km/hMostly Cloudy
11:50 AM16 °C14 °C88 %1010.2 hPa6.9 kmWSW (240°)14.8 km/hMostly Cloudy
12:20 PM16 °C14 °C88 %1011.2 hPa6.9 kmSW (230°)13 km/hMostly Cloudy
12:50 PM17 °C14 °C82 %1011.2 hPa9 kmWSW (250°)13 km/hMostly Cloudy
1:20 PM17 °C14 °C82 %1011.2 hPa10 kmSW (230°)14.8 km/hMostly Cloudy
1:50 PM17 °C14 °C82 %1011.2 hPa10 kmSW (220°)13 km/hMostly Cloudy
2:20 PM17 °C14 °C82 %1011.2 hPa10 kmSW (220°)14.8 km/hMostly Cloudy
2:50 PM18 °C14 °C77 %1011.2 hPa10 kmSW (220°)11.1 km/hMostly Cloudy
3:20 PM19 °C14 °C73 %1012.2 hPa10 kmSSW (210°)18.5 km/hMostly Cloudy
3:50 PM20 °C15 °C73 %1012.2 hPa10 kmSSW (210°)18.5 km/hScattered Clouds
4:20 PM20 °C15 °C73 %1012.2 hPa10 kmSSW (200°)18.5 km/hScattered Clouds
4:50 PM20 °C14 °C68 %1012.2 hPa10 kmSSW (200°)18.5 km/hScattered Clouds
5:20 PM19 °C14 °C73 %1012.2 hPa10 kmSSW (210°)16.7 km/hPartly Cloudy
5:50 PM19 °C14 °C73 %1012.2 hPa10 kmSSW (210°)20.4 km/hScattered Clouds
6:20 PM19 °C14 °C73 %1011.2 hPa10 kmSW (220°)16.7 km/hPartly Cloudy
6:50 PM19 °C14 °C73 %1011.2 hPa10 kmSW (220°)18.5 km/hPartly Cloudy
7:20 PM18 °C14 °C77 %1012.2 hPa10 kmSSW (210°)16.7 km/hPartly Cloudy
7:50 PM18 °C14 °C77 %1012.2 hPa10 kmSW (220°)13 km/hPartly Cloudy
8:20 PM17 °C14 °C82 %1012.2 hPa10 kmSSW (210°)13 km/hPartly Cloudy
8:50 PM17 °C14 °C82 %1012.2 hPa10 kmSSW (200°)13 km/hPartly Cloudy
9:20 PM16 °C14 °C88 %1012.2 hPa10 kmSSW (210°)13 km/hPartly Cloudy
9:50 PM16 °C13 °C82 %1012.2 hPa10 kmSSW (210°)13 km/hPartly Cloudy
10:20 PM15 °C13 °C88 %1013.2 hPa10 kmSSW (210°)11.1 km/hScattered Clouds
10:50 PM15 °C12 °C82 %1013.2 hPa10 kmSW (220°)13 km/hPartly Cloudy
11:20 PM14 °C12 °C88 %1013.2 hPa10 kmSSW (210°)13 km/hPartly Cloudy
11:50 PM14 °C12 °C88 %1013.2 hPaSSW (210°)13 km/hClear
Hourly data recorded from EGKK, located 0 kilometers away from London, England







STORIES FROM OUR PARTNERS